STARLINK-31654 (59858 NORAD) Tracking and Keplerian Element Data

This shows tracking and keplerian element data for the satellite.

Feedback or suggestion? Click here.




ElementValue
Catalog59858
NameSTARLINK-31654
Epoch Orbit359
Epoch Day160.16667824
Epoch Year2024
RAAN328.0484
Inclination43.0033
Eccentricity0.0001574
Argument of Perigee284.2933
Mean Anonmoly177.6461
Mean Motion15.73744177
Decay Rate-0.01772717
L11 59858U 24098A 24160.16667824 -.01772717 00000+0 -13902-1 0 9990
L22 59858 43.0033 328.0484 0001574 284.2933 177.6461 15.73744177 3592



Live tracking and technical data element details for STARLINK-31654 (NORAD 59858). STARLINK-31654 can be tracked NOW for your location showing map with azimuth and elevation plus other details from your city location.







IsCatalogInMostPopularTable: catalog: 59858, numindb: 10
Update: records affected: 1



GetName: 59858 STARLINK-31654

Hit Count: updated at: Wed, 24 Jul 2024 23:40:22 GMT